Powrót do katalogu

STARLINK-33721

AktywnyŁącznośćVLEO
NORAD 63480·PAYLOAD·🇺🇸 United States

Wystrzelony Apr 6, 2025 z Cape Canaveral Space Force Station

Loading…

Następne Przeloty (najbliższe 24 godziny)

TLE

ŚwieżeSource: CelesTrak SupGP

Epoka: Sep 14, 2026, 22:58 UTC

1 63480C 25070W   26257.95743056  .00037803  00000+0  13709-2 0  2575
2 63480  43.0027 267.2436 0001366 263.6175 132.4486 15.27519265    17

Śledź STARLINK-33721 w czasie rzeczywistym z AllMySat

Download on the App Store